Location: Innsbruck
(47.2657°N, 11.3914°E)
Time: 14:37:32
(UTC+02:00)

Nauka - Pass Details

Date: 29 September 2021
Orbit: 418 x 423 km, 51.6° (Epoch: 18 October)

Event Time Altitude Azimuth Distance (km) Brightness Sun altitude
Rises 20:12:28 0° 292° (WNW) 2,366 ? -13.4°
Reaches altitude 10° 20:14:36 10° 298° (WNW) 1,502 ? -13.8°
Maximum altitude 20:17:54 51° 15° (NNE) 538 ? -14.4°
Enters shadow 20:19:20 29° 77° (ENE) 811 ? -14.6°
